OBJECT U, 62395

Orbit data source: Space-Track

You're viewing an Uncataloged Satellite

Recently launched and/or uncataloged satellites may have evolving metadata. Metadata may include but not limited to: Owner, Maufacturer, Bus, Motor, and Mission.

OBJECT U, 62395 is a satellite in LEO that was launched on Sat, 21 Dec 2024 UTC via an FALCON 9 launch vehicle from the Air Force Western Test Range (AFWTR). Unknown objects in Earth's orbit typically refer to objects detected orbiting the Earth but have not yet been identified or cataloged. These objects could be anything from previously untracked satellites, spent rocket stages, debris from satellite collisions, or even natural meteoroids temporarily captured by Earth's gravity.

Loading next visibility...
Identifier
62395, 2024-247U
Orbit
LEO
Country
Flag of TBDTBD
Related business
Flag of USONDO Space LLC (US)
Manufacturer
ONDO Space
Mission
Operational Commercial Communications
Bus & Motor
CUBESAT 0.5U, Unknown motor
Mass
0.25 kg wet, 0.25 kg dry
Launch date (UTC)
2024-12-21 (1 year ago)
Launch vehicle
FALCON 9
Launch site
Air Force Western Test Range (AFWTR)
Object type
Unknown
Shape & HBR
Box, 0.0 m
Radar Cross Section
0.004 m², Medium (>0.1 m² and < 1m²)

Expand to show TLE details & history
Last TLE update: 14 hours ago

TLE from 14 hours ago
0 OBJECT U
1 62395U 24247U   26171.25085397  .00028989  00000-0  54111-3 0  9991
2 62395  44.9928 238.9564 0007776 311.2231  48.7989 15.48285101 83876
Epoch: 2026-06-20T06:01Z
TLE epoch observation values (Epoch: 2026-06-20T06:01:13.783Z)
Latitude
-0.00001°
Longitude
-119.8192°
Altitude
418.26 km
Speed
7.664 km/s
True Right ascension
15h 55m 49s
True Declination
0° 00' 00"
Sunlit
Object was in full shadow at epoch
Visualization orbit readout
Latitude
Unknown
Longitude
Unknown
Altitude
Unknown
Speed
Unknown
Apparent Right ascension
Unknown
Apparent Declination
Unknown
Sunlit
N/A
Visualization observer readout
Local Sidereal Time
07:18:52
Azimuth
Unknown
Elevation
Unknown
Doppler factor
Unknown
Orbital elements
Apogee altitude
428.656 km
Perigee altitude
418.079 km
Semi-major axis
6,801.504 km
Eccentricity
0.00078
Inclination
44.9928°
RAAN
238.9564°
Arg. of periapsis
311.2231°
True anomaly
48.86599°
Mean anomaly
48.7989°
Eccentric anomaly
48.83244°
Mean motion
3.86933 °/min
Orbital period
93.04 mins
BSTAR
0.00054111
Loading maneuver chart data...
Computing Atmospheric mass density...
Loading historical data...
Loading historical data...
Loading historical data...
Loading historical data...
Loading historical data...
Loading historical data...
Loading historical data...

Documentation

Showing up to 5 results
|